Location: Ashtead
(51.3000°N, 0.3000°W)
Time: 21:38:39
(UTC+00:00)

GP-B - Visible Passes

Search period start: 24 April 2024 00:00
Search period end: 04 May 2024 00:00
Orbit: 625 x 629 km, 89.8° (Epoch: 24 April)

Date Brightness Start Highest point End Pass type
(mag) Time Alt. Az. Time Alt. Az. Time Alt. Az.
24 Apr 5.6 00:41:55 10° NE 00:44:17 14° ENE 00:46:24 11° ESE visible
24 Apr 3.0 02:17:37 10° N 02:22:04 78° W 02:23:43 38° SSW visible
24 Apr 5.2 03:57:22 10° NW 03:58:26 11° WNW 03:59:31 10° W visible
25 Apr 5.1 01:00:50 10° NNE 01:04:20 22° E 01:06:10 17° ESE visible
25 Apr 3.5 02:37:31 10° N 02:41:45 46° W 02:43:29 30° SW visible
26 Apr 4.3 01:20:11 10° NNE 01:24:17 36° E 01:25:56 26° SE visible
26 Apr 4.2 02:57:35 10° NNW 03:01:22 28° WNW 03:03:15 21° WSW visible
27 Apr 3.4 01:39:45 10° N 01:44:09 60° E 01:45:41 37° SSE visible
27 Apr 4.8 03:17:54 10° NNW 03:20:52 18° WNW 03:23:00 13° WSW visible
28 Apr 5.6 00:23:52 10° NE 00:26:05 14° ENE 00:28:07 10° ESE visible
28 Apr 3.0 01:59:28 10° N 02:03:55 81° W 02:05:26 40° S visible
28 Apr 5.2 03:38:57 10° NW 03:40:19 11° WNW 03:41:40 10° W visible
29 Apr 5.1 00:42:42 10° NNE 00:46:08 21° ENE 00:47:53 17° ESE visible
29 Apr 3.5 02:19:20 10° N 02:23:35 48° W 02:25:12 32° SW visible
30 Apr 4.4 01:02:00 10° NNE 01:06:03 34° E 01:07:37 26° ESE visible
30 Apr 4.2 02:39:20 10° NNW 02:43:11 29° WNW 02:44:56 22° WSW visible
01 May 3.5 01:21:32 10° N 01:25:54 57° E 01:27:22 37° SSE visible
01 May 4.8 02:59:36 10° NNW 03:02:41 19° WNW 03:04:42 14° WSW visible
02 May 5.6 00:05:45 10° NE 00:07:49 13° ENE 00:09:48 10° E visible
02 May 3.0 01:41:13 10° N 01:45:40 85° W 01:47:07 42° S visible
02 May 5.2 03:20:29 10° NW 03:22:06 12° WNW 03:23:42 10° W visible
03 May 5.1 00:24:29 10° NNE 00:27:50 21° ENE 00:29:33 17° ESE visible
03 May 3.4 02:01:02 10° N 02:05:19 50° W 02:06:51 34° SW visible
